[[{"header":{"parameterUnit":"m.s-1","parameterCategory":1,"la1":30.2991,"la2":30.254,"lo1":-89.0895,"lo2":-89.0444,"dy":0.0017,"dx":0.0017,"nx":28,"ny":28,"refTime":"2024-12-15T09:00:00:Z","depth":0,"parameterNumber":2,"parameterNumberName":"U-component_of_WINDS"},"data":[0,0,0,0,0,0,0,0,0,0,0,0,0,0,0,0,0,0,0,0,0,0,0,0,0,0,0,0,0,0,0,0,0,0,0,0,0,0,0,0,0,0,0,0,0,0,0,0,0,0,0,0,0,0,0,0,0,0,-4.5596,-4.5596,0,-4.5607,-4.5607,-4.5608,-4.5538,-4.5536,-4.5534,-4.5532,-4.5544,-4.5546,-4.5548,0,0,0,0,0,0,0,0,0,0,0,0,0,-4.5517,-4.5519,-4.5596,-4.5596,-4.5596,-4.5607,-4.5607,-4.5608,-4.5538,-4.5536,-4.5533,-4.5531,-4.5543,-4.5546,-4.5548,0,0,0,0,0,0,0,0,0,0,0,0,0,-4.5542,-4.5519,-4.5596,-4.5563,-4.556,-4.5607,-4.5607,-4.5608,-4.5539,-4.5536,-4.5533,-4.553,-4.5542,-4.5545,-4.5548,-4.5628,0,0,-4.5558,-4.556,0,0,0,0,0,0,0,0,-4.5541,-4.5545,-4.5568,-4.5565,-4.5562,-4.5568,-4.5584,-4.5615,-4.5539,-4.5547,-4.5532,-4.5528,-4.5554,-4.5556,-4.5565,-4.5629,-4.5629,-4.5559,-4.5561,-4.5562,-4.5563,0,0,0,0,0,0,0,-4.5539,-4.5544,-4.56,-4.5568,-4.5565,-4.5548,-4.5549,-4.5589,-4.5567,-4.5546,-4.5541,-4.5543,-4.5552,-4.5562,-4.5565,-4.5629,-4.5559,-4.5561,-4.5563,-4.5565,-4.5762,-4.5765,0,0,0,0,0,0,-4.5542,-4.5543,-4.56,-4.5601,-4.5544,-4.5552,-4.5553,-4.5569,-4.5566,-4.5563,-4.5546,-4.554,-4.5558,-4.5561,-4.5565,-4.5659,-4.5562,-4.5565,-4.5567,-4.5759,-4.5762,-4.5766,0,0,0,0,0,0,-4.554,-4.5547,-4.56,-4.5571,-4.5576,-4.5557,-4.5576,-4.5571,-4.5581,-4.5566,-4.5562,-4.556,-4.5556,-4.556,-4.5613,-4.5658,-4.5566,-4.5569,-4.5755,-4.576,-4.5764,-4.5848,0,0,0,0,0,0,-4.5538,-4.5547,-4.5576,-4.5572,-4.5578,-4.5647,-4.5579,-4.5573,-4.5586,-4.5579,-4.5578,-4.5575,-4.5554,-4.5609,-4.5617,-4.5661,-4.5572,-4.575,-4.5757,-4.5763,-4.5841,-4.5855,-4.5867,0,0,0,0,0,-4.5535,-4.5599,-4.5578,-4.5585,-4.5614,-4.565,-4.5654,-4.5627,-4.559,-4.562,-4.5611,-4.5575,-4.5653,-4.5615,-4.5623,-4.5669,-4.5747,-4.5755,-4.5762,-4.5835,-4.5852,-4.5867,0,0,0,0,0,0,-4.5608,-4.5597,-4.5574,-4.5638,-4.5646,-4.5638,-4.5674,-4.5646,-4.5664,-4.5656,-4.5624,-4.5624,-4.5683,-4.5682,-4.564,-4.5748,-4.5694,-4.5703,-4.5746,-4.5762,-4.5775,-4.5774,-4.5575,0,0,0,0,0,-4.5632,-4.5661,-4.5651,-4.5708,-4.5713,-4.5694,-4.5708,-4.5688,-4.5695,-4.5697,-4.5692,-4.57,-4.5727,-4.5745,-4.5768,-4.5841,-4.5841,-4.5877,-4.589,-4.5901,-4.5909,-4.595,-4.5966,-4.579,-4.579,-4.579,0,0,-4.568,-4.5678,-4.5699,-4.5723,-4.5726,-4.5759,-4.5697,-4.5733,-4.5757,-4.5703,-4.5753,-4.575,-4.5757,-4.5821,-4.5849,-4.5822,-4.5958,-4.591,-4.5919,-4.5921,-4.5959,-4.5976,-4.5991,-4.5795,-4.5794,-4.5794,0,0,-4.5785,-4.5786,-4.5835,-4.584,-4.5847,-4.5834,-4.5847,-4.5844,-4.5841,-4.5891,-4.5851,-4.588,-4.5926,-4.5933,-4.5943,-4.6055,-4.6023,-4.6064,-4.6132,-4.6172,-4.6185,-4.6198,-4.6239,-4.6254,-4.6072,-4.6073,-4.6073,0,-4.5844,-4.5891,-4.5863,-4.5903,-4.5916,-4.587,-4.592,-4.5926,-4.5941,-4.5951,-4.592,-4.5978,-4.598,-4.6046,-4.6074,-4.6083,-4.6097,-4.6063,-4.6186,-4.6198,-4.6209,-4.6247,-4.6263,-4.6078,-4.6077,-4.6076,-4.6076,0,-4.5964,-4.5998,-4.6037,-4.6053,-4.607,-4.6114,-4.6095,-4.6116,-4.6095,-4.6086,-4.6139,-4.614,-4.6164,-4.6178,-4.6158,-4.6243,-4.6226,-4.6191,-4.6136,-4.6231,-4.6267,-4.6281,-4.6085,-4.6083,-4.6081,-4.608,0,0,-4.6111,-4.6114,-4.6129,-4.6137,-4.6143,-4.6169,-4.6213,-4.6237,-4.6256,-4.6268,-4.6305,-4.6347,-4.6316,-4.6327,-4.6308,-4.6343,-4.6434,-4.6304,-4.6304,-4.6329,-4.6529,-4.6555,-4.6572,-4.6414,-4.6416,-4.6418,-4.6529,0,-4.6214,-4.6289,-4.6267,-4.6343,-4.6375,-4.6333,-4.6372,-4.6381,-4.6375,-4.6402,-4.6395,-4.6425,-4.6382,-4.6389,-4.6422,-4.6416,-4.6474,-4.6408,-4.6448,-4.645,-4.6447,-4.6591,-4.6617,-4.6721,-4.6543,-4.6545,-4.6547,0,-4.6343,-4.6362,-4.6441,-4.6445,-4.6457,-4.6492,-4.6514,-4.654,-4.655,-4.6544,-4.6559,-4.6533,-4.6578,-4.6524,-4.6586,-4.6542,-4.6558,-4.6558,-4.6562,-4.6563,-4.6503,-4.6597,-4.6753,-4.6769,-4.6568,-4.6567,-4.6565,0,-4.6444,-4.6489,-4.6543,-4.6551,-4.6556,-4.6582,-4.6585,-4.6593,-4.6609,-4.6629,-4.664,-4.6664,-4.6678,-4.6698,-4.6681,-4.6643,-4.6747,-4.6691,-4.6743,-4.6744,-4.6765,-4.6764,-4.6926,-4.6777,-4.6776,-4.6776,-4.6776,0,-4.656,-4.661,-4.6588,-4.6621,-4.6677,-4.6653,-4.6709,-4.6708,-4.6716,-4.6748,-4.6715,-4.6746,-4.6722,-4.6752,-4.6739,-4.6793,-4.68,-4.6796,-4.6792,-4.6799,-4.6799,-4.6808,-4.68,-4.678,-4.6779,-4.6778,-4.6778,0,-4.6681,-4.6668,-4.6724,-4.6725,-4.6727,-4.6768,-4.677,-4.6801,-4.6794,-4.6837,-4.6845,-4.6834,-4.6869,-4.6854,-4.6889,-4.6881,-4.6951,-4.6937,-4.6948,-4.6944,-4.6997,-4.6992,-4.717,-4.7193,-4.7029,-4.7031,-4.7032,0,-4.6755,-4.6793,-4.68,-4.682,-4.6826,-4.6858,-4.6876,-4.6855,-4.6875,-4.6892,-4.6922,-4.6953,-4.6977,-4.7034,-4.7029,-4.7057,-4.7044,-4.7105,-4.7048,-4.7055,-4.7045,-4.7043,-4.7047,-4.7116,-4.7118,-4.7119,-4.712,0,-4.6889,-4.6882,-4.6909,-4.6935,-4.6957,-4.6976,-4.6992,-4.7011,-4.6991,-4.7016,-4.7051,-4.707,-4.7108,-4.714,-4.7165,-4.717,-4.7143,-4.7139,-4.7152,-4.7159,-4.7164,-4.7163,-4.6978,-4.7134,-4.7133,-4.7132,-4.7131,-4.713,-4.6989,-4.7022,-4.7032,-4.7064,-4.7075,-4.7092,-4.7122,-4.712,-4.7149,-4.7178,-4.7165,-4.7206,-4.7218,-4.725,-4.7259,-4.7291,-4.7267,-4.7287,-4.7292,-4.7297,-4.7304,-4.716,-4.7296,-4.7295,-4.7295,-4.7295,-4.7294,0,-4.7122,-4.7128,-4.7157,-4.7182,-4.7208,-4.7182,-4.7199,-4.7223,-4.7259,-4.7273,-4.7298,-4.734,-4.7372,-4.7372,-4.7402,-4.7429,-4.7417,-4.7437,-4.7435,-4.7437,-4.7323,-4.7309,-4.7446,-4.7446,-4.7446,-4.7446,-4.7446,-4.7446,-4.7193,-4.7248,-4.7243,-4.7303,-4.7309,-4.7349,-4.7362,-4.7378,-4.7389,-4.7438,-4.7465,-4.7465,-4.7474,-4.7505,-4.7534,-4.7533,-4.7546,-4.7571,-4.7565,-4.7459,-4.7444,-4.743,-4.7416,-4.7574,-4.7574,-4.7676,-4.7677,-4.7678]},{"header":{"parameterUnit":"m.s-1","parameterCategory":1,"la1":30.2991,"la2":30.254,"lo1":-89.0895,"lo2":-89.0444,"dy":0.0017,"dx":0.0017,"nx":28,"ny":28,"refTime":"2024-12-15T09:00:00:Z","depth":0,"parameterNumber":3,"parameterNumberName":"V-component_of_WINDS"},"data":[0,0,0,0,0,0,0,0,0,0,0,0,0,0,0,0,0,0,0,0,0,0,0,0,0,0,0,0,0,0,0,0,0,0,0,0,0,0,0,0,0,0,0,0,0,0,0,0,0,0,0,0,0,0,0,0,0,0,0.1422,0.1422,0,0.146,0.1461,0.1461,0.1536,0.1537,0.1539,0.154,0.1578,0.1577,0.1577,0,0,0,0,0,0,0,0,0,0,0,0,0,0.1412,0.1412,0.1422,0.1422,0.1423,0.146,0.1461,0.1461,0.1536,0.1538,0.1539,0.1541,0.1578,0.1578,0.1577,0,0,0,0,0,0,0,0,0,0,0,0,0,0.143,0.1412,0.1422,0.1464,0.1469,0.146,0.1461,0.1462,0.1535,0.1538,0.154,0.1542,0.1578,0.1578,0.1577,0.153,0,0,0.1575,0.1575,0,0,0,0,0,0,0,0,0.1429,0.143,0.1458,0.1461,0.1466,0.1496,0.1471,0.1484,0.1535,0.151,0.154,0.1543,0.1549,0.1551,0.1553,0.1531,0.1533,0.1575,0.1575,0.1575,0.1575,0,0,0,0,0,0,0,0.1427,0.1429,0.1437,0.1458,0.1463,0.1482,0.1487,0.1474,0.1516,0.1512,0.1518,0.1521,0.1551,0.1553,0.1554,0.1533,0.1575,0.1575,0.1574,0.1574,0.1477,0.1475,0,0,0,0,0,0,0.142,0.1427,0.1436,0.1438,0.1453,0.148,0.1486,0.1484,0.1517,0.1524,0.152,0.1525,0.1553,0.1555,0.1556,0.1504,0.1575,0.1574,0.1574,0.1479,0.1476,0.1474,0,0,0,0,0,0,0.142,0.142,0.1434,0.1434,0.1438,0.1478,0.1475,0.1484,0.1486,0.1522,0.153,0.1514,0.1555,0.1557,0.1536,0.1506,0.1574,0.1573,0.1482,0.1478,0.1475,0.1397,0,0,0,0,0,0,0.1419,0.142,0.1402,0.1433,0.1437,0.1413,0.1474,0.1483,0.1485,0.1492,0.1519,0.1525,0.1557,0.1537,0.1536,0.1506,0.1573,0.1484,0.148,0.1476,0.1403,0.1392,0.1382,0,0,0,0,0,0.1418,0.1378,0.14,0.1401,0.1416,0.1412,0.1414,0.1451,0.1482,0.1465,0.1489,0.1525,0.1509,0.1534,0.1533,0.1503,0.1487,0.1481,0.1476,0.1407,0.1394,0.1382,0,0,0,0,0,0,0.134,0.1382,0.1408,0.1377,0.139,0.1424,0.1403,0.1436,0.144,0.1446,0.1492,0.1498,0.1471,0.1486,0.1512,0.146,0.1504,0.1498,0.1452,0.1439,0.1429,0.1426,0.1573,0,0,0,0,0,0.1319,0.1313,0.135,0.1318,0.1324,0.1362,0.1362,0.139,0.1405,0.1411,0.1433,0.1447,0.1445,0.1443,0.1444,0.1406,0.1413,0.1385,0.1375,0.1366,0.1361,0.1343,0.1331,0.1457,0.1457,0.1457,0,0,0.1276,0.1298,0.1291,0.1303,0.1317,0.1309,0.1366,0.1355,0.135,0.1409,0.1391,0.1408,0.1426,0.1397,0.1385,0.1408,0.1328,0.136,0.1352,0.1352,0.1336,0.1324,0.1314,0.1454,0.1454,0.1455,0,0,0.1193,0.1209,0.1185,0.1198,0.1219,0.1245,0.1239,0.1269,0.1283,0.1266,0.1311,0.1305,0.1301,0.1313,0.1318,0.1241,0.1275,0.124,0.1186,0.1168,0.1158,0.115,0.1123,0.1113,0.1235,0.1235,0.1235,0,0.1136,0.1126,0.1168,0.1155,0.1159,0.1214,0.119,0.1201,0.122,0.1222,0.1248,0.1245,0.1261,0.1236,0.1217,0.122,0.1215,0.1237,0.1156,0.1148,0.1141,0.1116,0.1105,0.123,0.1231,0.1231,0.1232,0,0.1055,0.1048,0.1026,0.1045,0.1047,0.1028,0.1068,0.1065,0.1093,0.1116,0.1099,0.1121,0.1127,0.1123,0.115,0.1102,0.1116,0.1148,0.1193,0.1124,0.1101,0.1092,0.1224,0.1226,0.1227,0.1228,0,0,0.0922,0.0966,0.0957,0.0967,0.0995,0.099,0.0974,0.0982,0.0978,0.099,0.0978,0.0975,0.1006,0.1012,0.1041,0.1025,0.0964,0.106,0.1061,0.1041,0.0913,0.0888,0.0876,0.0987,0.0985,0.0984,0.0912,0,0.0845,0.0821,0.086,0.0827,0.0821,0.0874,0.086,0.0876,0.0898,0.0896,0.0921,0.0918,0.0958,0.0962,0.0949,0.0974,0.0939,0.098,0.0976,0.0975,0.0969,0.0864,0.0838,0.0768,0.0903,0.0901,0.09,0,0.0751,0.076,0.0727,0.0758,0.0757,0.0744,0.0755,0.0753,0.0772,0.0789,0.0797,0.0832,0.0819,0.0863,0.0846,0.0873,0.0874,0.0886,0.0884,0.0885,0.0933,0.0862,0.0747,0.0736,0.0887,0.0888,0.0889,0,0.0658,0.0661,0.0642,0.0649,0.0685,0.0675,0.0689,0.0711,0.0713,0.0723,0.0725,0.0732,0.0736,0.0741,0.0777,0.0806,0.0756,0.0803,0.077,0.0769,0.0756,0.0756,0.0639,0.0757,0.0757,0.0758,0.0758,0,0.0567,0.0545,0.0601,0.0589,0.0566,0.0611,0.0586,0.0606,0.0625,0.0619,0.0665,0.0657,0.0706,0.0704,0.0732,0.0714,0.0716,0.0729,0.0737,0.0725,0.0723,0.0725,0.0731,0.0755,0.0755,0.0756,0.0756,0,0.0458,0.0495,0.0478,0.0514,0.0523,0.0504,0.0535,0.0526,0.0552,0.0543,0.0543,0.0583,0.0583,0.062,0.0627,0.0647,0.0617,0.0633,0.061,0.0615,0.058,0.0583,0.0461,0.0447,0.0573,0.0572,0.0571,0,0.0398,0.0382,0.0417,0.0416,0.0429,0.0427,0.043,0.0474,0.0476,0.0498,0.0486,0.049,0.0495,0.0493,0.0523,0.0529,0.0546,0.0503,0.0547,0.0536,0.0545,0.0546,0.0545,0.0493,0.0491,0.049,0.0489,0,0.0287,0.0306,0.0309,0.0319,0.0322,0.0332,0.0345,0.0341,0.039,0.0389,0.039,0.0395,0.0403,0.0407,0.0419,0.0434,0.0469,0.0475,0.0468,0.0455,0.0442,0.0449,0.0584,0.0477,0.0479,0.0479,0.048,0.048,0.02,0.0189,0.0213,0.0215,0.023,0.0241,0.0234,0.026,0.0262,0.0273,0.0299,0.0296,0.0318,0.0338,0.035,0.0348,0.037,0.0359,0.0356,0.0353,0.0346,0.0443,0.0351,0.0351,0.0351,0.0352,0.0352,0,0.0092,0.011,0.0112,0.0129,0.0131,0.0166,0.0182,0.0181,0.0178,0.0196,0.0201,0.0203,0.0207,0.0238,0.0245,0.0238,0.0255,0.0239,0.0239,0.0242,0.0326,0.0332,0.0225,0.0225,0.0225,0.0225,0.0225,0.0226,0.0035,0.0019,0.0041,0.0033,0.0052,0.005,0.0056,0.0067,0.0081,0.0081,0.0085,0.0106,0.0129,0.0139,0.0145,0.0154,0.0154,0.0132,0.0147,0.0224,0.0236,0.0248,0.0254,0.0132,0.0132,0.0063,0.0063,0.0062]}]]